Terug naar catalogus

RADUGA 11

ActiefMilitairGEO
NORAD 13669·PAYLOAD·🇷🇺 Russia

Gelanceerd Nov 26, 1982 vanaf Baikonur Cosmodrome

Loading…

TLE

VersSource: Space-Track

Epoch: Sep 14, 2026, 12:42 UTC

1 13669U 82113A   26257.52954872 -.00000153  00000-0  00000-0 0  9994
2 13669   9.0325 310.8341 0042862 296.3081  66.3015  0.97709741122412

Volg RADUGA 11 in realtime met AllMySat

Download on the App Store